• en France
  • Liste des pays
  • À 7 jours
  • Température de l'eau
  • Carte satellitaire
  • Carte météo
  • Widgets météo
  • user-avatar
    Se connecter

    Météo par heure à Newport

    Ce jour, 17 Janvier, Mercredi

    Heure Température Précipitation Vent Pression Humidité
    00:00 -1°C° 0 mm 13 m/s 747 mmHg 72%
    01:00 -1°C° 0,2 mm 13 m/s 748 mmHg 71%
    02:00 -1°C° 0,2 mm 13 m/s 749 mmHg 70%
    03:00 -1°C° 0,2 mm 13 m/s 750 mmHg 69%
    04:00 -1°C° 0,1 mm 13 m/s 751 mmHg 70%
    05:00 0°C° 0,1 mm 13 m/s 752 mmHg 71%
    06:00 +1°C° 0 mm 11 m/s 753 mmHg 76%
    07:00 +1°C° 0,1 mm 11 m/s 753 mmHg 75%
    08:00 +1°C° 0,1 mm 11 m/s 754 mmHg 75%
    09:00 +1°C° 0,1 mm 11 m/s 755 mmHg 75%
    10:00 +2°C° 0,1 mm 11 m/s 755 mmHg 74%
    11:00 +2°C° 0,1 mm 11 m/s 756 mmHg 73%
    12:00 +3°C° 0,1 mm 11 m/s 756 mmHg 73%
    13:00 +3°C° 0,1 mm 11 m/s 756 mmHg 74%
    14:00 +3°C° 0,1 mm 10 m/s 756 mmHg 74%
    15:00 +3°C° 0,1 mm 9 m/s 756 mmHg 75%
    16:00 +3°C° 0,3 mm 9 m/s 756 mmHg 79%
    17:00 +2°C° 0,3 mm 8 m/s 755 mmHg 82%
    18:00 +2°C° 0,3 mm 8 m/s 755 mmHg 86%
    19:00 +3°C° 1,8 mm 9 m/s 753 mmHg 88%
    20:00 +4°C° 1,8 mm 11 m/s 752 mmHg 91%
    21:00 +4°C° 1,8 mm 12 m/s 750 mmHg 94%
    22:00 +7°C° 1,3 mm 13 m/s 749 mmHg 92%
    23:00 +8°C° 1,3 mm 14 m/s 747 mmHg 90%

    Demain, 18 Janvier, Jeudi

    Heure Température Précipitation Vent Pression Humidité
    00:00 +9°C° 1,3 mm 15 m/s 746 mmHg 89%
    01:00 +8°C° 0,1 mm 15 m/s 746 mmHg 87%
    02:00 +8°C° 0,1 mm 15 m/s 747 mmHg 85%
    03:00 +6°C° 0,1 mm 15 m/s 747 mmHg 83%
    04:00 +5°C° 0 mm 13 m/s 748 mmHg 82%
    05:00 +4°C° 0 mm 11 m/s 748 mmHg 82%
    06:00 +3°C° 0 mm 10 m/s 749 mmHg 81%
    07:00 +3°C° 0,1 mm 10 m/s 749 mmHg 81%
    08:00 +3°C° 0,1 mm 10 m/s 750 mmHg 81%
    09:00 +3°C° 0,1 mm 10 m/s 750 mmHg 80%
    10:00 +3°C° 0,3 mm 10 m/s 750 mmHg 78%
    11:00 +5°C° 0,3 mm 10 m/s 751 mmHg 76%
    12:00 +5°C° 0,3 mm 10 m/s 751 mmHg 74%
    13:00 +3°C° 0,2 mm 10 m/s 752 mmHg 74%
    14:00 +3°C° 0,2 mm 10 m/s 752 mmHg 74%
    15:00 +3°C° 0,2 mm 10 m/s 752 mmHg 74%
    16:00 +2°C° 0,2 mm 9 m/s 753 mmHg 75%
    17:00 +2°C° 0,2 mm 9 m/s 753 mmHg 77%
    18:00 +1°C° 0,2 mm 8 m/s 754 mmHg 78%
    19:00 +1°C° 0,2 mm 8 m/s 754 mmHg 79%
    20:00 +1°C° 0,2 mm 8 m/s 754 mmHg 79%
    21:00 0°C° 0,2 mm 8 m/s 755 mmHg 79%
    22:00 0°C° 0,1 mm 7 m/s 755 mmHg 80%
    23:00 0°C° 0,1 mm 7 m/s 755 mmHg 80%

    Après-demain, 19 Janvier, Vendredi

    Heure Température Précipitation Vent Pression Humidité
    00:00 0°C° 0,1 mm 7 m/s 755 mmHg 81%
    01:00 0°C° 0,1 mm 7 m/s 755 mmHg 81%
    02:00 -1°C° 0,1 mm 7 m/s 755 mmHg 81%
    03:00 -1°C° 0,1 mm 7 m/s 755 mmHg 81%
    04:00 -1°C° 0,1 mm 7 m/s 755 mmHg 81%
    05:00 -1°C° 0,1 mm 7 m/s 755 mmHg 80%
    06:00 -1°C° 0,1 mm 7 m/s 755 mmHg 80%
    07:00 0°C° 0,1 mm 8 m/s 755 mmHg 80%
    08:00 0°C° 0,1 mm 8 m/s 755 mmHg 79%
    09:00 0°C° 0,1 mm 8 m/s 756 mmHg 78%
    10:00 0°C° 0,2 mm 9 m/s 756 mmHg 77%
    11:00 +1°C° 0,2 mm 9 m/s 756 mmHg 76%
    12:00 +1°C° 0,2 mm 10 m/s 756 mmHg 75%
    13:00 +1°C° 0,2 mm 10 m/s 756 mmHg 74%
    14:00 +1°C° 0,2 mm 10 m/s 756 mmHg 74%
    15:00 +1°C° 0,2 mm 10 m/s 756 mmHg 73%
    16:00 0°C° 0,1 mm 9 m/s 756 mmHg 74%
    17:00 0°C° 0,1 mm 9 m/s 756 mmHg 75%
    18:00 0°C° 0,1 mm 9 m/s 757 mmHg 76%
    19:00 0°C° 0,1 mm 8 m/s 757 mmHg 77%
    20:00 -1°C° 0,1 mm 8 m/s 757 mmHg 78%
    21:00 -1°C° 0,1 mm 8 m/s 757 mmHg 79%
    22:00 -1°C° 0 mm 7 m/s 757 mmHg 79%
    23:00 -1°C° 0 mm 7 m/s 757 mmHg 80%

    20 Janvier, Samedi

    Heure Température Précipitation Vent Pression Humidité
    00:00 -1°C° 0 mm 6 m/s 757 mmHg 81%
    01:00 0°C° 0,1 mm 5 m/s 757 mmHg 82%
    02:00 0°C° 0,1 mm 4 m/s 757 mmHg 83%
    03:00 +1°C° 0,1 mm 3 m/s 756 mmHg 84%
    04:00 +2°C° 0,3 mm 3 m/s 756 mmHg 85%
    05:00 +3°C° 0,3 mm 2 m/s 755 mmHg 87%
    06:00 +4°C° 0,3 mm 1 m/s 755 mmHg 88%
    07:00 +4°C° 0,1 mm 1 m/s 755 mmHg 88%
    08:00 +4°C° 0,1 mm 1 m/s 755 mmHg 88%
    09:00 +4°C° 0,1 mm 1 m/s 756 mmHg 89%
    10:00 +5°C° 0 mm 1 m/s 756 mmHg 87%
    11:00 +5°C° 0 mm 1 m/s 756 mmHg 85%
    12:00 +6°C° 0 mm 1 m/s 757 mmHg 84%
    13:00 +6°C° 0 mm 1 m/s 757 mmHg 84%
    14:00 +6°C° 0 mm 1 m/s 757 mmHg 84%
    15:00 +6°C° 0 mm 1 m/s 758 mmHg 85%
    16:00 +6°C° 0,1 mm 1 m/s 758 mmHg 86%
    17:00 +5°C° 0,1 mm 1 m/s 759 mmHg 86%
    18:00 +5°C° 0,1 mm 1 m/s 759 mmHg 87%
    19:00 +4°C° 0,1 mm 2 m/s 760 mmHg 87%
    20:00 +3°C° 0,1 mm 3 m/s 760 mmHg 87%
    21:00 +3°C° 0,1 mm 3 m/s 760 mmHg 87%
    22:00 +2°C° 0,5 mm 5 m/s 760 mmHg 89%
    23:00 +3°C° 0,5 mm 6 m/s 760 mmHg 91%

    21 Janvier, Dimanche

    Heure Température Précipitation Vent Pression Humidité
    00:00 +3°C° 0,5 mm 7 m/s 759 mmHg 93%
    01:00 +4°C° 0,6 mm 7 m/s 759 mmHg 94%
    02:00 +4°C° 0,6 mm 6 m/s 759 mmHg 95%
    03:00 +5°C° 0,6 mm 6 m/s 758 mmHg 97%
    04:00 +6°C° 0,2 mm 7 m/s 758 mmHg 97%
    05:00 +8°C° 0,2 mm 7 m/s 757 mmHg 97%
    06:00 +9°C° 0,2 mm 8 m/s 757 mmHg 97%
    07:00 +10°C° 0,2 mm 9 m/s 757 mmHg 96%
    08:00 +9°C° 0,2 mm 10 m/s 757 mmHg 96%
    09:00 +11°C° 0,2 mm 11 m/s 757 mmHg 95%
    10:00 +11°C° 0,4 mm 11 m/s 757 mmHg 95%
    11:00 +9°C° 0,4 mm 11 m/s 757 mmHg 95%
    12:00 +9°C° 0,4 mm 11 m/s 757 mmHg 94%
    13:00 +9°C° 0,6 mm 10 m/s 757 mmHg 95%
    14:00 +11°C° 0,6 mm 10 m/s 757 mmHg 95%
    15:00 +11°C° 0,6 mm 9 m/s 756 mmHg 95%
    16:00 +10°C° 1,4 mm 9 m/s 756 mmHg 95%
    17:00 +10°C° 1,4 mm 8 m/s 756 mmHg 95%
    18:00 +10°C° 1,4 mm 8 m/s 756 mmHg 96%
    19:00 +10°C° 0,5 mm 8 m/s 757 mmHg 96%
    20:00 +10°C° 0,5 mm 7 m/s 757 mmHg 96%
    21:00 +10°C° 0,5 mm 7 m/s 758 mmHg 96%
    22:00 +9°C° 0 mm 6 m/s 758 mmHg 95%
    23:00 +9°C° 0 mm 6 m/s 759 mmHg 94%

    22 Janvier, Lundi

    Heure Température Précipitation Vent Pression Humidité
    00:00 +8°C° 0 mm 5 m/s 759 mmHg 93%
    01:00 +7°C° 0 mm 4 m/s 760 mmHg 93%
    02:00 +6°C° 0 mm 4 m/s 760 mmHg 93%
    03:00 +5°C° 0 mm 3 m/s 760 mmHg 92%
    04:00 +6°C° 0 mm 2 m/s 761 mmHg 92%
    05:00 +6°C° 0 mm 1 m/s 761 mmHg 91%
    06:00 +5°C° 0 mm 0 m/s 761 mmHg 91%
    07:00 +6°C° 0 mm 1 m/s 761 mmHg 91%
    08:00 +6°C° 0 mm 1 m/s 761 mmHg 91%
    09:00 +5°C° 0 mm 2 m/s 761 mmHg 92%
    10:00 +6°C° 0 mm 2 m/s 760 mmHg 90%
    11:00 +8°C° 0 mm 3 m/s 760 mmHg 88%
    12:00 +8°C° 0 mm 4 m/s 760 mmHg 87%
    13:00 +8°C° 0 mm 4 m/s 759 mmHg 89%
    14:00 +8°C° 0 mm 4 m/s 758 mmHg 91%
    15:00 +9°C° 0 mm 5 m/s 757 mmHg 93%
    16:00 +9°C° 0,3 mm 5 m/s 757 mmHg 94%
    17:00 +10°C° 0,3 mm 6 m/s 757 mmHg 96%
    18:00 +10°C° 0,3 mm 6 m/s 756 mmHg 97%
    19:00 +10°C° 0,2 mm 6 m/s 757 mmHg 97%
    20:00 +10°C° 0,2 mm 7 m/s 757 mmHg 96%
    21:00 +10°C° 0,2 mm 7 m/s 757 mmHg 95%
    22:00 +10°C° 0 mm 7 m/s 758 mmHg 95%
    23:00 +9°C° 0 mm 7 m/s 758 mmHg 95%
    Voir plus